This is the latest recevied weather packets stored in our database for station/object JG6YPS-13. If no packets are shown the sender has not sent any weather packets the latest 10 day(s).
| Time | Temp. | Humidity | Pressure | Rain* | Wind** | Luminosity | Snow |
|---|---|---|---|---|---|---|---|
| 1777799973 | 18.89° C | 94% | 1003.6 hPa | 9.65 mm | - | - | - |
| 1777799373 | 19.44° C | 95% | 1003.5 hPa | 11.68 mm | - | - | - |
| 1777798773 | 19.44° C | 94% | 1003.4 hPa | 11.94 mm | - | - | - |
| 1777798174 | 19.44° C | 95% | 1002.9 hPa | 15.24 mm | - | - | - |
| 1777797574 | 19.44° C | 96% | 1002.9 hPa | 16.26 mm | - | - | - |
| 1777796974 | 18.89° C | 95% | 1002.8 hPa | 16.26 mm | - | - | - |
| 1777796375 | 18.89° C | 94% | 1002.8 hPa | 12.95 mm | - | - | - |
| 1777795775 | 18.89° C | 94% | 1002.5 hPa | 11.68 mm | - | - | - |
| 1777795175 | 18.89° C | 94% | 1003.1 hPa | 10.67 mm | - | - | - |
| 1777794576 | 18.89° C | 94% | 1003 hPa | 8.89 mm | - | - | - |
| 1777793976 | 18.89° C | 93% | 1003.1 hPa | 8.38 mm | - | - | - |
| 1777793376 | 18.89° C | 93% | 1003.3 hPa | 7.87 mm | - | - | - |
| 1777792777 | 18.89° C | 93% | 1003.8 hPa | 7.87 mm | - | - | - |
| 1777792177 | 18.33° C | 93% | 1004.1 hPa | 7.87 mm | - | - | - |
| 1777791577 | 18.33° C | 93% | 1004.2 hPa | 9.14 mm | - | - | - |
| 1777790978 | 18.33° C | 93% | 1004.5 hPa | 7.87 mm | - | - | - |
| 1777790378 | 18.33° C | 93% | 1004.5 hPa | 8.89 mm | - | - | - |
| 1777789779 | 18.33° C | 93% | 1004.6 hPa | 10.92 mm | - | - | - |
| 1777789179 | 18.33° C | 93% | 1004.6 hPa | 11.94 mm | - | - | - |
| 1777788579 | 18.33° C | 93% | 1004.8 hPa | 10.92 mm | - | - | - |
| 1777787979 | 18.33° C | 93% | 1005.1 hPa | 8.89 mm | - | - | - |
| 1777787380 | 18.33° C | 93% | 1005.1 hPa | 9.14 mm | - | - | - |
| 1777786780 | 18.33° C | 92% | 1005.1 hPa | 9.14 mm | - | - | - |
| 1777786180 | 18.33° C | 92% | 1004.8 hPa | 7.11 mm | - | - | - |
| 1777785580 | 18.33° C | 92% | 1005.1 hPa | 5.59 mm | - | - | - |
* Rain latest hour (hover to see other rain measurements)
** Current wind speed in m/s (hover to see current wind gust speed)